This is the latest recevied weather packets stored in our database for station/object KE5JQA-1. If no packets are shown the sender has not sent any weather packets the latest 10 day(s).
| Time | Temp. | Humidity | Pressure | Rain* | Wind** | Luminosity | Snow |
|---|---|---|---|---|---|---|---|
| 1777279217 | 23.89° C | 41% | 1008.7 hPa | 0 mm | - | - | - |
| 1777277717 | 23.89° C | 41% | 1008.5 hPa | 0 mm | - | - | - |
| 1777276516 | 23.89° C | 41% | 1008.7 hPa | 0 mm | - | - | - |
| 1777276216 | 23.89° C | 41% | 1008.7 hPa | 0 mm | - | - | - |
| 1777275317 | 23.89° C | 42% | 1009 hPa | 0 mm | - | - | - |
| 1777275016 | 23.89° C | 42% | 1009.1 hPa | 0 mm | - | - | - |
| 1777274716 | 23.89° C | 42% | 1009.2 hPa | 0 mm | - | - | - |
| 1777271736 | 24.44° C | 50% | 1009 hPa | 0 mm | - | - | - |
| 1777264537 | 25° C | 53% | 1009.4 hPa | 0 mm | - | - | - |
| 1777261816 | 25.56° C | 56% | 1009.1 hPa | 0 mm | - | - | - |
| 1777261516 | 25.56° C | 57% | 1009 hPa | 0 mm | - | - | - |
| 1777260017 | 25.56° C | 57% | 1009.1 hPa | 0 mm | - | - | - |
| 1777258536 | 26.11° C | 58% | 1009.2 hPa | 0 mm | - | - | - |
| 1777255816 | 26.67° C | 57% | 1008.5 hPa | 0 mm | - | - | - |
| 1777253716 | 27.22° C | 57% | 1007.9 hPa | 0 mm | - | - | - |
| 1777251036 | 27.78° C | 56% | 1007.7 hPa | 0 mm | - | - | - |
| 1777250716 | 27.78° C | 56% | 1007.7 hPa | 0 mm | - | - | - |
| 1777248316 | 29.44° C | 53% | 1007.6 hPa | 0 mm | - | - | - |
| 1777245916 | 29.44° C | 52% | 1007.8 hPa | 0 mm | - | - | - |
| 1777243216 | 30° C | 51% | 1008.1 hPa | 0 mm | - | - | - |
| 1777242637 | 30° C | 51% | 1008 hPa | 0 mm | - | - | - |
| 1777241436 | 30° C | 50% | 1008 hPa | 0 mm | - | - | - |
| 1777238736 | 30.56° C | 48% | 1008.3 hPa | 0 mm | - | - | - |
| 1777238118 | 30.56° C | 48% | 1008.2 hPa | 0 mm | - | - | - |
| 1777231818 | 31.11° C | 47% | 1009.3 hPa | 0 mm | - | - | - |
* Rain latest hour (hover to see other rain measurements)
** Current wind speed in m/s (hover to see current wind gust speed)